datetime,flow volume
2012-06-24,44.31748
2012-06-25,46.836240000000004
2012-06-26,
2012-06-27,
2012-06-28,
2012-06-29,
2012-06-30,
2012-07-01,
2012-07-02,
2012-07-03,
2012-07-04,
2012-07-05,
2012-07-06,
2012-07-07,59.51449
2012-07-08,63.1199
2012-07-09,62.55652
2012-07-10,
2012-07-11,
2012-07-12,
2012-07-13,
2012-07-14,
2012-07-15,
2012-07-16,
2012-07-17,
2012-07-18,
2012-07-19,93.88462
2012-07-20,72.48149
2012-07-21,
2012-07-22,
2012-07-23,
2012-07-24,
2012-07-25,
2012-07-26,
2012-07-27,
2012-07-28,65.34512
2012-07-29,84.22512
2012-07-30,98.66736
2012-07-31,
2012-08-01,
2012-08-02,
2012-08-03,
2012-08-04,
2012-08-05,
2012-08-06,
2012-08-07,
2012-08-08,44.25868
2012-08-09,41.93802
2012-08-10,42.12066
2012-08-11,131.3843
2012-08-12,59.60902
2012-08-13,60.7133
2012-08-14,61.42231
2012-08-15,56.50826
2012-08-16,60.39917
2012-08-17,62.63223
2012-08-18,73.78843
2012-08-19,54.80331
2012-08-20,49.23719
2012-08-21,55.0
2012-08-22,54.87521
2012-08-23,66.53471
2012-08-24,63.38595
2012-08-25,54.14793
2012-08-26,56.75575
2012-08-27,67.8864
2012-08-28,67.64298
2012-08-29,59.7124
2012-08-30,51.29835
2012-08-31,63.88264
2012-09-01,94.25702
2012-09-02,218.02397
2012-09-03,164.50496
2012-09-04,106.89587
2012-09-05,93.47769
2012-09-06,105.11983
2012-09-07,98.76942
2012-09-08,81.83967
2012-09-09,68.9843
2012-09-10,59.05455
2012-09-11,69.94298
2012-09-12,85.74298
2012-09-13,70.14793
2012-09-14,51.13223
2012-09-15,46.90992
2012-09-16,44.2595
2012-09-17,46.34132
2012-09-18,44.1124
2012-09-19,49.14132
2012-09-20,45.12066
2012-09-21,40.03388
2012-09-22,37.49256
2012-09-23,34.34959
2012-09-24,36.25455
2012-09-25,57.92231
2012-09-26,85.70331
2012-09-27,106.72893
2012-09-28,164.42149
2012-09-29,114.40744
2012-09-30,92.37686
2012-10-01,136.16529
2012-10-02,141.47851
2012-10-03,52.3843
2012-10-04,43.71818
2012-10-05,39.31653
2012-10-06,39.38347
2012-10-07,45.23058
2012-10-08,51.02645
2012-10-09,57.12562
2012-10-10,60.21074
2012-10-11,81.28264
2012-10-12,92.10661
2012-10-13,103.4
2012-10-14,129.63388
2012-10-15,205.97355
2012-10-16,245.8719
2012-10-17,242.72397
2012-10-18,239.4
2012-10-19,238.35041
2012-10-20,242.60909
2012-10-21,244.32727
2012-10-22,263.65207
2012-10-23,271.3438
2012-10-24,270.73388
2012-10-25,276.05785
2012-10-26,274.90579
2012-10-27,273.7719
2012-10-28,279.17107
2012-10-29,276.26777
2012-10-30,272.64959
2012-10-31,266.80992
2012-11-01,262.16777
2012-11-02,261.03306
2012-11-03,255.91074
2012-11-04,246.94234
2012-11-05,246.18545
2012-11-06,230.75259
2012-11-07,109.80856
2012-11-08,81.7665
2012-11-09,87.25584
2012-11-10,92.74518
2012-11-11,98.23452
2012-11-12,103.72386
2012-11-13,109.2132
2012-11-14,114.70255
2012-11-15,120.19189
2012-11-16,125.68123
2012-11-17,131.17057
2012-11-18,136.65991
2012-11-19,142.14925
2012-11-20,147.63859
2012-11-21,153.12793
2012-11-22,158.61728
2012-11-23,164.10662
2012-11-24,169.59596
2012-11-25,175.0853
2012-11-26,180.57464
2012-11-27,186.06398
2012-11-28,191.55332
2012-11-29,197.04266
2012-11-30,202.532
2012-12-01,208.02135
2012-12-02,213.51069
2012-12-03,219.00003
2012-12-04,224.48937
2012-12-05,248.71583
2012-12-06,239.08512
2012-12-07,233.22727
2012-12-08,223.02479
2012-12-09,191.75207
2012-12-10,156.13802
2012-12-11,230.15455
2012-12-12,232.58843
2012-12-13,238.93306
2012-12-14,235.44793
2012-12-15,239.9562
2012-12-16,225.76033
2012-12-17,229.29008
2012-12-18,240.86116
2012-12-19,209.58926
2012-12-20,102.92066
2012-12-21,112.88017
2012-12-22,128.26777
2012-12-23,160.04215
2012-12-24,221.39091
2012-12-25,209.90826
2012-12-26,199.63884
2012-12-27,222.38099
2012-12-28,207.01157
2012-12-29,177.91736
2012-12-30,177.0719
2012-12-31,199.78926
2013-01-01,179.96777
2013-01-02,166.56612
2013-01-03,161.98926
2013-01-04,160.18843
2013-01-05,166.32975
2013-01-06,139.97851
2013-01-07,126.55537
2013-01-08,174.88843
2013-01-09,195.37934
2013-01-10,211.87025
2013-01-11,221.1843
2013-01-12,190.13058
2013-01-13,178.80165
2013-01-14,165.46694
2013-01-15,150.13802
2013-01-16,169.98099
2013-01-17,179.6405
2013-01-18,184.89008
2013-01-19,193.43141
2013-01-20,198.3405
2013-01-21,204.64959
2013-01-22,209.5876
2013-01-23,213.5843
2013-01-24,221.9438
2013-01-25,231.34793
2013-01-26,237.94463
2013-01-27,244.0843
2013-01-28,246.7
2013-01-29,216.11488
2013-01-30,236.11157
2013-01-31,254.7157
2013-02-01,251.97686
2013-02-02,240.22562
2013-02-03,245.27438
2013-02-04,237.31322
2013-02-05,243.28182
2013-02-06,247.55702
2013-02-07,229.8
2013-02-08,236.0124
2013-02-09,249.23141
2013-02-10,228.70248
2013-02-11,233.38017
2013-02-12,210.53967
2013-02-13,225.96364
2013-02-14,247.67686
2013-02-15,231.43884
2013-02-16,237.35785
2013-02-17,240.67355
2013-02-18,224.58099
2013-02-19,232.05868
2013-02-20,238.50744
2013-02-21,240.89339
2013-02-22,223.26281
2013-02-23,228.62975
2013-02-24,217.6124
2013-02-25,222.53471
2013-02-26,235.4595
2013-02-27,214.09835
2013-02-28,227.02975
2013-03-01,243.20413
2013-03-02,252.27521
2013-03-03,262.06033
2013-03-04,257.26364
2013-03-05,227.4719
2013-03-06,241.88678
2013-03-07,260.39504
2013-03-08,256.61405
2013-03-09,270.82149
2013-03-10,258.27314
2013-03-11,255.47273
2013-03-12,261.79917
2013-03-13,266.16364
2013-03-14,271.16694
2013-03-15,274.83058
2013-03-16,272.3843
2013-03-17,257.65868
2013-03-18,245.97025
2013-03-19,236.28099
2013-03-20,232.90496
2013-03-21,237.3
2013-03-22,228.17273
2013-03-23,210.57025
2013-03-24,215.55785
2013-03-25,225.02562
2013-03-26,238.09091
2013-03-27,228.79587
2013-03-28,226.96942
2013-03-29,228.09587
2013-03-30,231.49587
2013-03-31,233.35207
2013-04-01,221.16116
2013-04-02,263.65041
2013-04-03,244.74298
2013-04-04,234.70248
2013-04-05,240.94793
2013-04-06,246.14215
2013-04-07,244.42975
2013-04-08,244.4562
2013-04-09,304.3447
2013-04-10,266.48595
2013-04-11,277.20083
2013-04-12,284.71488
2013-04-13,262.9405
2013-04-14,270.69752
2013-04-15,278.84959
2013-04-16,293.01473
2013-04-17,123.45702
2013-04-18,91.30331
2013-04-19,89.62314
2013-04-20,79.71983
2013-04-21,70.57025
2013-04-22,57.82562
2013-04-23,53.2
2013-04-24,46.18595
2013-04-25,43.80248
2013-04-26,42.19421
2013-04-27,43.22066
2013-04-28,47.85868
2013-04-29,56.13719
2013-04-30,71.73884
2013-05-01,101.50165
2013-05-02,76.56777
2013-05-03,52.62479
2013-05-04,46.21983
2013-05-05,59.58678
2013-05-06,78.05124
2013-05-07,138.79421
2013-05-08,130.7
2013-05-09,99.07107
2013-05-10,65.62645
2013-05-11,65.8438
2013-05-12,90.9124
2013-05-13,167.87769
2013-05-14,227.95041
2013-05-15,271.5562
2013-05-16,289.66364
2013-05-17,294.90496
2013-05-18,297.90992
2013-05-19,224.71901
2013-05-20,158.28347
2013-05-21,115.42066
2013-05-22,87.72397
2013-05-23,110.65785
2013-05-24,157.77025
2013-05-25,174.07107
2013-05-26,165.28264
2013-05-27,180.58512
2013-05-28,143.7876
2013-05-29,156.59669
2013-05-30,119.29504
2013-05-31,86.74711
2013-06-01,53.61074
2013-06-02,46.57438
2013-06-03,45.83471
2013-06-04,55.06116
2013-06-05,56.15041
2013-06-06,48.1595
2013-06-07,38.00496
2013-06-08,36.39174
2013-06-09,41.901650000000004
2013-06-10,36.45289
2013-06-11,44.6719
2013-06-12,45.06033
2013-06-13,46.44876
2013-06-14,43.89256
2013-06-15,36.2281
2013-06-16,49.97603
2013-06-17,55.8281
2013-06-18,56.2719
2013-06-19,49.32562
2013-06-20,48.50744
2013-06-21,44.20083
2013-06-22,54.57769
2013-06-23,52.43223
2013-06-24,50.2157
2013-06-25,55.67025
2013-06-26,102.69008
2013-06-27,74.07603
2013-06-28,67.29669
2013-06-29,71.71322
2013-06-30,62.09421
2013-07-01,51.68512
2013-07-02,46.96446
2013-07-03,52.15785
2013-07-04,65.00744
2013-07-05,89.74215
2013-07-06,104.12562
2013-07-07,115.61488
2013-07-08,202.11157
2013-07-09,137.85537
2013-07-10,103.58843
2013-07-11,94.36612
2013-07-12,115.19339
2013-07-13,137.21405
2013-07-14,143.13471
2013-07-15,131.27521
2013-07-16,127.26612
2013-07-17,97.95207
2013-07-18,202.06529
2013-07-19,153.50661
2013-07-20,86.72397
2013-07-21,53.06777
2013-07-22,56.08182
2013-07-23,51.08264
2013-07-24,49.46281
2013-07-25,66.3
2013-07-26,51.5719
2013-07-27,44.40083
2013-07-28,75.3314
2013-07-29,90.2686
2013-07-30,99.80083
2013-07-31,79.76198
2013-08-01,95.5595
2013-08-02,103.86281
2013-08-03,78.6562
2013-08-04,72.67438
2013-08-05,60.58678
2013-08-06,60.48678
2013-08-07,64.29008
2013-08-08,60.20992
2013-08-09,55.82066
2013-08-10,72.83058
2013-08-11,68.16116
2013-08-12,60.94793
2013-08-13,65.61074
2013-08-14,64.26529
2013-08-15,59.71818
2013-08-16,52.23223
2013-08-17,50.5595
2013-08-18,57.28347
2013-08-19,63.9438
2013-08-20,64.51983
2013-08-21,76.90331
2013-08-22,78.31818
2013-08-23,84.31322
2013-08-24,125.28843
2013-08-25,133.56281
2013-08-26,150.30661
2013-08-27,139.1595
2013-08-28,134.36116
2013-08-29,127.84793
2013-08-30,99.39669
2013-08-31,107.25289
2013-09-01,70.74132
2013-09-02,67.42645
2013-09-03,50.65289
2013-09-04,57.27851
2013-09-05,80.81901
2013-09-06,116.71405
2013-09-07,118.68678
2013-09-08,117.71818
2013-09-09,131.96116
2013-09-10,104.38926
2013-09-11,163.24463
2013-09-12,311.78843
2013-09-13,303.21983
2013-09-14,401.62149
2013-09-15,395.22149
2013-09-16,312.57107
2013-09-17,283.63017
2013-09-18,297.21736
2013-09-19,270.88843
2013-09-20,232.76364
2013-09-21,211.61653
2013-09-22,249.41322
2013-09-23,273.3562
2013-09-24,226.55455
2013-09-25,224.09504
2013-09-26,230.59008
2013-09-27,246.96116
2013-09-28,245.42066
2013-09-29,242.04215
2013-09-30,213.36859
2013-10-01,160.12562
2013-10-02,126.12975
2013-10-03,105.86777
2013-10-04,136.70496
2013-10-05,180.26364
2013-10-06,169.98264
2013-10-07,173.41901
2013-10-08,157.16694
2013-10-09,129.28512
2013-10-10,137.81818
2013-10-11,208.36777
2013-10-12,211.01983
2013-10-13,210.66612
2013-10-14,229.31818
2013-10-15,261.24793
2013-10-16,280.6281
2013-10-17,269.46612
2013-10-18,266.82562
2013-10-19,267.26942
2013-10-20,259.12231
2013-10-21,259.76612
2013-10-22,264.70248
2013-10-23,259.7686
2013-10-24,254.74959
2013-10-25,262.79256
2013-10-26,260.68512
2013-10-27,259.50909
2013-10-28,266.1157
2013-10-29,286.05455
2013-10-30,280.95207
2013-10-31,271.92149
2013-11-01,269.88017
2013-11-02,268.43306
2013-11-03,264.19091
2013-11-04,260.95702
2013-11-05,255.81983
2013-11-06,254.91322
2013-11-07,267.62397
2013-11-08,272.61653
2013-11-09,266.00165
2013-11-10,262.83802
2013-11-11,256.43223
2013-11-12,257.6124
2013-11-13,255.81653
2013-11-14,256.5
2013-11-15,251.67769
2013-11-16,244.41157
2013-11-17,246.90661
2013-11-18,242.29008
2013-11-19,243.25289
2013-11-20,252.22893
2013-11-21,264.92645
2013-11-22,256.36116
2013-11-23,231.03719
2013-11-24,256.53306
2013-11-25,248.44215
2013-11-26,243.62397
2013-11-27,235.86033
2013-11-28,235.38182
2013-11-29,239.7876
2013-11-30,235.4281
2013-12-01,235.24463
2013-12-02,248.19339
2013-12-03,252.85041
2013-12-04,227.7562
2013-12-05,118.53967
2013-12-06,101.80083
2013-12-07,139.74628
2013-12-08,163.94876
2013-12-09,143.46281
2013-12-10,118.5843
2013-12-11,101.15455
2013-12-12,92.42231
2013-12-13,98.08512
2013-12-14,138.82231
2013-12-15,174.46198
2013-12-16,177.79421
2013-12-17,175.7157
2013-12-18,178.87355
2013-12-19,196.15372
2013-12-20,195.32893
2013-12-21,174.46198
2013-12-22,168.30083
2013-12-23,171.47107
2013-12-24,178.68017
2013-12-25,135.51983
2013-12-26,119.79917
2013-12-27,151.19174
2013-12-28,158.74793
2013-12-29,143.45041
2013-12-30,128.55124
2013-12-31,157.31405
2014-01-01,172.5562
2014-01-02,154.26942
2014-01-03,148.71074
2014-01-04,157.31983
2014-01-05,95.40579
2014-01-06,71.26116
2014-01-07,96.28264
2014-01-08,181.18264
2014-01-09,213.35455
2014-01-10,213.4562
2014-01-11,220.13388
2014-01-12,217.26859
2014-01-13,208.82314
2014-01-14,208.81653
2014-01-15,216.85041
2014-01-16,212.57769
2014-01-17,211.61322
2014-01-18,211.37107
2014-01-19,205.16942
2014-01-20,202.81157
2014-01-21,196.27851
2014-01-22,194.66281
2014-01-23,205.31983
2014-01-24,177.38843
2014-01-25,194.56694
2014-01-26,207.18347
2014-01-27,210.45785
2014-01-28,195.06777
2014-01-29,201.77851
2014-01-30,236.2876
2014-01-31,205.96364
2014-02-01,181.72562
2014-02-02,180.01322
2014-02-03,199.16198
2014-02-04,198.51405
2014-02-05,166.93636
2014-02-06,178.92727
2014-02-07,214.04793
2014-02-08,217.05041
2014-02-09,223.2595
2014-02-10,215.59421
2014-02-11,197.68182
2014-02-12,206.88512
2014-02-13,220.79504
2014-02-14,237.05372
2014-02-15,229.6
2014-02-16,231.92231
2014-02-17,206.17438
2014-02-18,209.15124
2014-02-19,208.35289
2014-02-20,190.69504
2014-02-21,198.99339
2014-02-22,216.60909
2014-02-23,209.5157
2014-02-24,207.74711
2014-02-25,214.34545
2014-02-26,219.46612
2014-02-27,225.44628
2014-02-28,224.07355
2014-03-01,231.03967
2014-03-02,224.41157
2014-03-03,209.81405
2014-03-04,217.9876
2014-03-05,212.30413
2014-03-06,209.37521
2014-03-07,212.7281
2014-03-08,207.03306
2014-03-09,206.20992
2014-03-10,190.54368
2014-03-11,87.94545
2014-03-12,3.83194
2014-03-13,0.72231
2014-03-14,0.7562
2014-03-15,0.7702500000000001
2014-03-16,0.8024800000000001
2014-03-17,-0.9264500000000001
2014-03-18,-7.21818
2014-03-19,-9.3876
2014-03-20,-10.19339
2014-03-21,-10.77934
2014-03-22,-10.89008
2014-03-23,-10.88678
2014-03-24,-10.88182
2014-03-25,49.75702
2014-03-26,205.01653
2014-03-27,216.46529
2014-03-28,214.48264
2014-03-29,204.86777
2014-03-30,208.19587
2014-03-31,201.17521
2014-04-01,220.32314
2014-04-02,220.38264
2014-04-03,199.47769
2014-04-04,203.48512
2014-04-05,208.26033
2014-04-06,210.08099
2014-04-07,201.72397
2014-04-08,201.53306
2014-04-09,205.13719
2014-04-10,165.71157
2014-04-11,146.2314
2014-04-12,199.11983
2014-04-13,226.00826
2014-04-14,203.52397
2014-04-15,129.61818
2014-04-16,107.08926
2014-04-17,99.94711
2014-04-18,103.97769
2014-04-19,116.70248
2014-04-20,157.67851
2014-04-21,194.01983
2014-04-22,203.86364
2014-04-23,176.20579
2014-04-24,98.83802
2014-04-25,42.8876
2014-04-26,103.80826
2014-04-27,188.60413
2014-04-28,139.24215
2014-04-29,184.93471
2014-04-30,154.5157
2014-05-01,127.19835
2014-05-02,112.27851
2014-05-03,130.65372
2014-05-04,138.42893
2014-05-05,149.74463
2014-05-06,216.60579
2014-05-07,165.89091
2014-05-08,175.88595
2014-05-09,158.50579
2014-05-10,132.88347
2014-05-11,100.04132
2014-05-12,113.40826
2014-05-13,114.50579
2014-05-14,116.48264
2014-05-15,98.53967
2014-05-16,85.27686
2014-05-17,115.08512
2014-05-18,155.23471
2014-05-19,209.26694
2014-05-20,156.2843
2014-05-21,142.24959
2014-05-22,156.70083
2014-05-23,182.14463
2014-05-24,172.6595
2014-05-25,138.36198
2014-05-26,253.56942
2014-05-27,365.5157
2014-05-28,376.2157
2014-05-29,331.44132
2014-05-30,330.65041
2014-05-31,279.14545
2014-06-01,
2014-06-02,161.19091
2014-06-03,223.88843
2014-06-04,109.10331
2014-06-05,239.72645
2014-06-06,298.39587
2014-06-07,241.73884
2014-06-08,207.25207
2014-06-09,202.02231
2014-06-10,304.03306
2014-06-11,359.36942
2014-06-12,200.59174
2014-06-13,151.46529
2014-06-14,154.02314
2014-06-15,266.93636
2014-06-16,225.41157
2014-06-17,138.64711
2014-06-18,178.17934
2014-06-19,113.60496
2014-06-20,65.75207
2014-06-21,61.0595
2014-06-22,64.95041
2014-06-23,64.6719
2014-06-24,74.90579
2014-06-25,68.85868
2014-06-26,61.55207
2014-06-27,64.1438
2014-06-28,66.23636
2014-06-29,56.20248
2014-06-30,41.974380000000004
2014-07-01,41.42645
2014-07-02,42.98099
2014-07-03,90.21405
2014-07-04,107.1562
2014-07-05,78.04215
2014-07-06,78.20744
2014-07-07,77.35192
2014-07-08,61.82231
2014-07-09,57.37769
2014-07-10,96.03719
2014-07-11,170.40826
2014-07-12,215.69752
2014-07-13,160.59421
2014-07-14,135.13636
2014-07-15,117.53802
2014-07-16,53.15868
2014-07-17,46.60579
2014-07-18,48.31517
2014-07-19,53.63403
2014-07-20,62.00122
2014-07-21,71.24876
2014-07-22,54.65372
2014-07-23,48.15537
2014-07-24,77.12231
2014-07-25,69.78264
2014-07-26,65.40744
2014-07-27,70.25785
2014-07-28,72.99504
2014-07-29,127.74545
2014-07-30,267.35124
2014-07-31,176.65702
2014-08-01,128.89256
2014-08-02,87.25537
2014-08-03,63.49421
2014-08-04,108.01157
2014-08-05,204.03636
2014-08-06,201.35702
2014-08-07,174.70826
2014-08-08,122.61322
2014-08-09,124.93388
2014-08-10,124.73802
2014-08-11,117.22855
2014-08-12,82.72562
2014-08-13,97.97107
2014-08-14,130.3719
2014-08-15,123.75372
2014-08-16,82.42893
2014-08-17,44.5438
2014-08-18,87.19339
2014-08-19,98.8876
2014-08-20,127.26777
2014-08-21,159.06116
2014-08-22,131.28347
2014-08-23,316.48512
2014-08-24,224.93058
2014-08-25,190.51405
2014-08-26,202.56694
2014-08-27,239.79091
2014-08-28,250.79587
2014-08-29,228.33802
2014-08-30,227.44298
2014-08-31,211.59339
2014-09-01,193.29835
2014-09-02,105.67273
2014-09-03,78.27934
2014-09-04,59.12149
2014-09-05,58.16694
2014-09-06,65.93802
2014-09-07,95.67769
2014-09-08,98.75537
2014-09-09,194.87517
2014-09-10,179.21818
2014-09-11,121.90661
2014-09-12,119.16198
2014-09-13,120.93802
2014-09-14,89.62231
2014-09-15,62.70661
2014-09-16,53.56612
2014-09-17,51.35496
2014-09-18,55.81488
2014-09-19,59.30331
2014-09-20,53.62727
2014-09-21,63.12397
2014-09-22,124.37769
2014-09-23,82.53223
2014-09-24,71.63058
2014-09-25,55.04463
2014-09-26,50.39504
2014-09-27,53.68347
2014-09-28,14.41074
2014-09-29,15.63554
2014-09-30,13.27355
2014-10-01,235.9719
2014-10-02,360.34132
2014-10-03,328.30083
2014-10-04,311.59504
2014-10-05,303.36612
2014-10-06,315.93223
2014-10-07,320.06446
2014-10-08,312.83884
2014-10-09,309.35702
2014-10-10,288.60413
2014-10-11,303.26446
2014-10-12,304.11653
2014-10-13,311.52975
2014-10-14,257.93802
2014-10-15,276.50661
2014-10-16,313.90579
2014-10-17,328.75124
2014-10-18,321.28347
2014-10-19,321.0
2014-10-20,318.16281
2014-10-21,315.39917
2014-10-22,314.48017
2014-10-23,313.84298
2014-10-24,279.56529
2014-10-25,259.99256
2014-10-26,259.77438
2014-10-27,254.22397
2014-10-28,253.22066
2014-10-29,249.03223
2014-10-30,241.03802
2014-10-31,244.48595
2014-11-01,250.15785
2014-11-02,270.40496
2014-11-03,256.10496
2014-11-04,243.21736
2014-11-05,248.16694
2014-11-06,245.25785
2014-11-07,247.09008
2014-11-08,239.09174
2014-11-09,234.2438
2014-11-10,220.90331
2014-11-11,220.55124
2014-11-12,223.16364
2014-11-13,195.74545
2014-11-14,221.82066
2014-11-15,239.36446
2014-11-16,168.36281
2014-11-17,135.72397
2014-11-18,57.77107
2014-11-19,77.31818
2014-11-20,98.88099
2014-11-21,45.58595
2014-11-22,49.74459
2014-11-23,57.11103
2014-11-24,46.84711
2014-11-25,30.05289
2014-11-26,98.61818
2014-11-27,32.45372
2014-11-28,28.43471
2014-11-29,23.1595
2014-11-30,24.64545
2014-12-01,19.63471
2014-12-02,14.2157
2014-12-03,21.55041
2014-12-04,32.8281
2014-12-05,39.34876
2014-12-06,37.07603
2014-12-07,32.66198
2014-12-08,30.15868
2014-12-09,24.59835
2014-12-10,30.73223
2014-12-11,23.681820000000002
2014-12-12,35.86033
2014-12-13,34.87769
2014-12-14,28.99669
2014-12-15,10.40496
2014-12-16,36.1686
2014-12-17,50.39339
2014-12-18,30.63719
2014-12-19,29.73554
2014-12-20,44.79835
2014-12-21,60.66529
2014-12-22,96.12149
2014-12-23,52.62645
2014-12-24,19.27603
2014-12-25,73.48678
2014-12-26,43.1
2014-12-27,20.59339
2014-12-28,59.36446
2014-12-29,47.68926
2014-12-30,40.16694
2014-12-31,12.63719
2015-01-01,24.5719
2015-01-02,160.09174
2015-01-03,198.60496
2015-01-04,226.2157
2015-01-05,274.40826
2015-01-06,297.32562
2015-01-07,280.83306
2015-01-08,265.48347
2015-01-09,257.42231
2015-01-10,258.4124
2015-01-11,260.10331
2015-01-12,258.14463
2015-01-13,260.25455
2015-01-14,236.03388
2015-01-15,240.63802
2015-01-16,231.02314
2015-01-17,251.37438
2015-01-18,228.60661
2015-01-19,245.07851
2015-01-20,237.9
2015-01-21,218.70579
2015-01-22,181.13058
2015-01-23,193.14811
2015-01-24,212.93375
2015-01-25,232.18003
2015-01-26,243.60795
2015-01-27,220.03058
2015-01-28,214.42397
2015-01-29,214.18017
2015-01-30,217.13802
2015-01-31,237.39917
2015-02-01,215.9405
2015-02-02,219.20661
2015-02-03,217.52727
2015-02-04,228.01901
2015-02-05,221.99256
2015-02-06,235.02066
2015-02-07,231.82562
2015-02-08,233.48264
2015-02-09,227.86281
2015-02-10,235.09504
2015-02-11,223.00331
2015-02-12,222.09752
2015-02-13,224.30331
2015-02-14,222.60083
2015-02-15,225.09256
2015-02-16,222.93058
2015-02-17,208.73471
2015-02-18,212.32397
2015-02-19,227.07025
2015-02-20,221.33223
2015-02-21,218.23884
2015-02-22,214.60909
2015-02-23,201.87107
2015-02-24,200.28595
2015-02-25,229.80083
2015-02-26,217.2157
2015-02-27,212.4157
2015-02-28,219.11322
2015-03-01,223.4157
2015-03-02,235.47273
2015-03-03,225.97851
2015-03-04,196.7157
2015-03-05,211.7124
2015-03-06,223.63058
2015-03-07,226.65702
2015-03-08,222.39971
2015-03-09,219.14959
2015-03-10,217.9
2015-03-11,215.56077
2015-03-12,219.54872
2015-03-13,222.95993
2015-03-14,224.04132
2015-03-15,225.36281
2015-03-16,230.83884
2015-03-17,234.90496
2015-03-18,242.96446
2015-03-19,249.1
2015-03-20,246.91973
2015-03-21,237.13471
2015-03-22,247.4595
2015-03-23,251.68006
2015-03-24,252.13636
2015-03-25,243.27245
2015-03-26,234.40854
2015-03-27,225.54463
2015-03-28,232.52893
2015-03-29,223.36281
2015-03-30,231.55124
2015-03-31,218.5124
2015-04-01,253.81736
2015-04-02,280.66364
2015-04-03,275.70826
2015-04-04,258.70165
2015-04-05,254.03554
2015-04-06,260.52397
2015-04-07,244.4595
2015-04-08,224.03802
2015-04-09,231.67851
2015-04-10,212.28347
2015-04-11,204.44298
2015-04-12,201.07438
2015-04-13,206.16859
2015-04-14,175.96198
2015-04-15,200.22727
2015-04-16,238.66529
2015-04-17,225.09587
2015-04-18,215.62479
2015-04-19,213.39504
2015-04-20,181.81074
2015-04-21,156.79421
2015-04-22,185.87025
2015-04-23,205.61405
2015-04-24,194.7405
2015-04-25,198.17355
2015-04-26,228.0314
2015-04-27,188.37686
2015-04-28,128.33388
2015-04-29,106.57355
2015-04-30,115.00579
2015-05-01,133.32314
2015-05-02,136.44628
2015-05-03,111.28099
2015-05-04,133.31322
2015-05-05,127.57273
2015-05-06,134.21901
2015-05-07,170.54463
2015-05-08,169.29256
2015-05-09,143.51736
2015-05-10,205.07107
2015-05-11,135.12479
2015-05-12,126.61818
2015-05-13,87.10579
2015-05-14,90.96859
2015-05-15,198.28099
2015-05-16,228.92893
2015-05-17,211.07769
2015-05-18,210.73388
2015-05-19,240.65124
2015-05-20,246.62975
2015-05-21,290.59174
2015-05-22,343.00909
2015-05-23,345.05785
2015-05-24,329.92314
2015-05-25,330.36198
2015-05-26,324.09587
2015-05-27,426.53636
2015-05-28,402.45455
2015-05-29,368.98926
2015-05-30,327.69256
2015-05-31,317.19339
2015-06-01,327.42149
2015-06-02,426.35455
2015-06-03,339.06942
2015-06-04,296.01818
2015-06-05,277.8562
2015-06-06,284.63802
2015-06-07,253.06364
2015-06-08,228.12645
2015-06-09,211.8438
2015-06-10,207.42727
2015-06-11,233.9438
2015-06-12,280.80909
2015-06-13,236.88926
2015-06-14,235.12066
2015-06-15,508.05455
2015-06-16,555.87521
2015-06-17,404.83802
2015-06-18,403.67107
2015-06-19,287.43554
2015-06-20,345.94298
2015-06-21,230.99421
2015-06-22,165.62397
2015-06-23,124.72562
2015-06-24,89.2843
2015-06-25,67.50992
2015-06-26,53.13388
2015-06-27,48.83471
2015-06-28,45.8157
2015-06-29,54.14628
2015-06-30,82.22695
2015-07-01,57.21322
2015-07-02,66.92975
2015-07-03,46.93554
2015-07-04,42.14876
2015-07-05,60.09174
2015-07-06,63.72314
2015-07-07,107.04132
2015-07-08,145.87438
2015-07-09,169.7938
2015-07-10,193.71322
2015-07-11,46.32727
2015-07-12,45.89174
2015-07-13,45.33471
2015-07-14,104.64132
2015-07-15,134.15041
2015-07-16,111.61983
2015-07-17,73.80579
2015-07-18,53.50744
2015-07-19,48.88017
2015-07-20,48.79504
2015-07-21,60.87686
2015-07-22,106.22479
2015-07-23,94.38017
2015-07-24,60.30248
2015-07-25,46.49587
2015-07-26,41.87107
2015-07-27,59.37934
2015-07-28,94.05537
2015-07-29,69.12479
2015-07-30,70.63554
2015-07-31,65.20826
2015-08-01,64.36694
2015-08-02,63.30909
2015-08-03,160.08678
2015-08-04,246.4562
2015-08-05,183.80165
2015-08-06,135.66446
2015-08-07,150.36446
2015-08-08,213.38678
2015-08-09,252.29091
2015-08-10,196.01488
2015-08-11,139.73884
2015-08-12,124.67521
2015-08-13,100.52727
2015-08-14,55.44463
2015-08-15,52.75785
2015-08-16,62.42645
2015-08-17,85.55207
2015-08-18,73.59587
2015-08-19,52.17603
2015-08-20,62.39587
2015-08-21,60.61901
2015-08-22,52.69669
2015-08-23,65.2438
2015-08-24,77.83554
2015-08-25,50.67438
2015-08-26,52.90909
2015-08-27,100.93471
2015-08-28,81.49587
2015-08-29,45.29752
2015-08-30,50.49174
2015-08-31,67.65785
2015-09-01,59.34132
2015-09-02,72.62397
2015-09-03,79.18347
2015-09-04,70.25124
2015-09-05,71.9405
2015-09-06,76.02975
2015-09-07,48.48843
2015-09-08,40.65785
2015-09-09,38.70496
2015-09-10,40.49091
2015-09-11,41.79256
2015-09-12,51.2876
2015-09-13,56.52066
2015-09-14,63.974380000000004
2015-09-15,137.08926